Regional Weather Roundup
Issued by NWS

Home | Current Version | Previous Version | Text Only | Print | Product List | Glossary Off
Versions: 1 2 3 4 5 6 7 8 9 10 11 12 13 14 15 16 17 18 19 20 21 22 23 24 25 26 27 28 29 30 31 32 33 34 35 36 37 38 39 40 41 42 43 44 45 46 47 48 49 50

000
ASUS43 KOAX 210702
RWRNE

WEATHER ROUNDUP FOR NEBRASKA
NATIONAL WEATHER SERVICE OMAHA NE
200 AM CDT SAT OCT 21 2017

NOTES: SATELLITE DATA IS BEING USED TO AUGMENT CLOUD COVER ABOVE
       12000 FEET.
       "FAIR" INDICATES FEW OR NO CLOUDS BELOW 12,000 FEET WITH NO
       SIGNIFICANT WEATHER AND/OR OBSTRUCTIONS TO VISIBILITY.


NEZ001>004-019>022-054>056-210800-
NEBRASKA PANHANDLE

CITY           SKY/WX    TMP DP  RH WIND       PRES   REMARKS
SCOTTSBLUFF    CLOUDY    53  35  50 W25G35    29.57S
ALLIANCE       CLOUDY    59  34  39 NW18G29   29.51S
CHADRON        CLOUDY    62  32  32 NW30G39   29.54R
GORDON         FAIR      64  34  32 NW23G36   29.48R
KIMBALL        CLOUDY    47  32  55 NW24G32   29.62R
SIDNEY         CLOUDY    53  35  50 NW22G33   29.56R
$$

NEZ057>060-069>072-079>082-210800-
SOUTHWEST NEBRASKA

CITY           SKY/WX    TMP DP  RH WIND       PRES   REMARKS
NORTH PLATTE   CLEAR     61  56  83 E9        29.45F
IMPERIAL       CLOUDY    59  44  57 S8        29.44S
LEXINGTON      CLEAR     65  58  76 S18G26    29.48F
MCCOOK         CLEAR     66  55  67 S20G38    29.45F
OGALLALA       CLOUDY    58  51  77 W14G30    29.49R
$$

NEZ005>010-023>029-035>040-094-210800-
NORTH CENTRAL NEBRASKA

CITY           SKY/WX    TMP DP  RH WIND       PRES   REMARKS
VALENTINE      CLEAR     63  55  75 S7        29.43R
AINSWORTH      CLOUDY    61  57  86 S15G21    29.45S
BROKEN BOW     CLOUDY    63  57  81 SE10      29.49S
O`NEILL        PTCLDY    65  59  82 S18       29.49S
ORD            CLEAR     65  59  81 S10G20    29.50F
THEDFORD       CLEAR     62  56  82 S12       29.45S
$$

NEZ041-046>049-061>064-073>077-083>087-210800-
SOUTH CENTRAL NEBRASKA

CITY           SKY/WX    TMP DP  RH WIND       PRES   REMARKS
GRAND ISLAND   PTCLDY    67  61  81 S22G31    29.54F
AURORA         CLOUDY    68  60  75 S23G31    29.56F
HASTINGS       CLOUDY    67  59  75 S18G31    29.56F
HEBRON         PTCLDY    71  62  71 S30G41    29.62F
HOLDREGE       CLEAR     65  59  80 S20G28    29.52F
KEARNEY        PTCLDY    67  59  75 S24G33    29.53
YORK           CLOUDY    66  61  82 S21G26    29.58F
$$

NEZ011>018-030>034-042>045-210800-
NORTHEAST NEBRASKA

CITY           SKY/WX    TMP DP  RH WIND       PRES   REMARKS
NORFOLK        CLOUDY    66  58  75 S22G30    29.55F
ALBION         CLOUDY    68  58  70 S18G24    29.54F
BLAIR          CLOUDY    65  59  79 S17       29.65F
COLUMBUS       CLOUDY    67  59  75 S17G24    29.58F
FREMONT        CLOUDY    67  58  72 SE16G24   29.62F
TEKAMAH        CLOUDY    67  57  70 S12G25    29.63F
WAYNE          MOCLDY    67  60  79 S25G32    29.57F
$$

NEZ050>053-065>068-078-088>093-210800-
SOUTHEAST NEBRASKA

CITY           SKY/WX    TMP DP  RH WIND       PRES   REMARKS
LINCOLN        CLOUDY    70  61  73 S31G41    29.61F
OMAHA EPPLEY   TSTM      66  57  72 S21G31    29.66F
BEATRICE       CLOUDY    69  60  75 S18G30    29.66S
FALLS CITY     CLOUDY    67  59  75 S18G26    29.73F
NEBRASKA CITY  TSTM      64  63  96 S30G37    29.70F
PLATTSMOUTH    CLOUDY    65  59  80 S18G24    29.68F
$$

NEZ044-045-051>053-067-210800-
OMAHA AREA

CITY           SKY/WX    TMP DP  RH WIND       PRES   REMARKS
OMAHA EPPLEY   TSTM      66  57  72 S21G31    29.66F
BLAIR          CLOUDY    65  59  79 S17       29.65F
FREMONT        CLOUDY    67  58  72 SE16G24   29.62F
MILLARD        CLOUDY    68  60  75 SE13G22   29.66F
OFFUTT AFB     CLOUDY    64  57  77 SE15      29.66F
PLATTSMOUTH    CLOUDY    65  59  80 S18G24    29.68F
WAHOO          CLOUDY    68  58  72 S16G25    29.63F
$$




USA.gov is the U.S. government's official web portal to all federal, state and local government web resources and services.